Location: Gellin
(53.4498°N, 14.3207°E)
Time: 01:29:13
(UTC+00:00)

Ariane Rocket - Pass Details

Date: 03 March 2021
Orbit: 759 x 771 km, 98.7° (Epoch: 11 April)

Event Time Altitude Azimuth Distance (km) Brightness Sun altitude
Exits shadow 18:42:03 16° 156° (SSE) 1,907 4.7 -18.2°
Maximum altitude 18:46:07 79° 71° (ENE) 792 2.9 -18.7°
Drops below altitude 10° 18:51:15 10° 346° (NNW) 2,325 5.9 -19.5°
Sets 18:53:34 0° 345° (NNW) 3,255 6.7 -19.8°
